This demonstration page uses our WeatherBlox Daily Observations layout. Learn more.

Left ArrowRight Arrow

Hourly Observations for September 25, 2018

Temp ( °F °C ) Dew Point ( °F °C ) Humidity (%) Winds ( mph kmh ) Pressure ( in mb ) Visibility ( mi km ) Precip ( " mm )
12:54 am 00:54 Mostly Cloudy 62 16.7 57 13.9 84 84 N 10 17 29.88 1012 10 16 0.00 0.00
1:54 am 01:54 Clear 60 15.6 56 13.3 86 86 N 10 17 29.88 1012 10 16 0.00 0.00
2:54 am 02:54 Clear 58 14.4 55 12.8 90 90 N 8 13 29.89 1012 10 16 0.00 0.00
3:54 am 03:54 Clear 57 13.9 54 12.2 90 90 NNE 7 11 29.87 1011 10 16 0.00 0.00
4:54 am 04:54 Partly Cloudy 57 13.9 54 12.2 90 90 NE 3 6 29.85 1011 10 16 0.00 0.00
5:27 am 05:27 Mostly Cloudy 57 13.9 54 12.2 90 90 NNE 6 9 29.88 1012 10 16 0.00 0.00
5:47 am 05:47 Cloudy 58 14.4 55 12.8 90 90 Calm 29.88 1012 10 16 0.00 0.00
5:54 am 05:54 Cloudy 58 14.4 55 12.8 90 90 N 5 7 29.85 1011 10 16 0.00 0.00
6:54 am 06:54 Cloudy 58 14.4 55 12.8 90 90 N 6 9 29.85 1011 10 16 0.00 0.00
7:20 am 07:20 Cloudy 59 15 55 12.8 87 87 NNW 8 13 29.88 1012 10 16 0.00 0.00
7:54 am 07:54 Cloudy 59 15 55 12.8 87 87 NNW 9 15 29.88 1012 9 14 0.00 0.00
8:01 am 08:01 Cloudy with Light Rain 59 15 55 12.8 87 87 NNW 9 15 29.91 1013 8 13 0.00 0.03
8:22 am 08:22 Cloudy with Light Rain 58 14.4 56 13.3 93 93 NW 21 33 29.94 1014 2 3 0.00 0.03
8:30 am 08:30 Cloudy with Nearby Thunderstorms 58 14.4 56 13.3 93 93 NNW 17 28 29.94 1014 1 1 0.01 0.25
8:38 am 08:38 Cloudy with Nearby Thunderstorms 58 14.4 56 13.3 93 93 NNW 21 33 29.94 1014 1 2 0.02 0.51
8:41 am 08:41 Cloudy with Light Rain 58 14.4 56 13.3 93 93 NNW 22 35 29.94 1014 1 2 0.02 0.51
8:50 am 08:50 Cloudy with Light Rain 57 14 55 13 94 94 NNW 15 24 29.94 1014 1 2 0.02 0.51
8:54 am 08:54 Cloudy with Light Rain 58 14.4 56 13.3 93 93 NNW 17 28 29.93 1013 7 11 0.02 0.51
9:39 am 09:39 Cloudy with Heavy Rain 58 14.4 55 12.8 90 90 NW 14 22 30.00 1016 4 6 0.03 0.76
9:54 am 09:54 Cloudy with Light Rain 58 14.4 55 12.8 90 90 NNW 17 28 29.98 1015 7 11 0.05 1.27
10:02 am 10:02 Cloudy with Light Rain 58 14.4 55 12.8 90 90 N 16 26 30.00 1016 10 16 0.00 0.03
10:14 am 10:14 Cloudy 58 14.4 55 12.8 90 90 N 12 19 30.00 1016 10 16 0.00 0.03
10:54 am 10:54 Cloudy 58 14.4 55 12.8 90 90 N 13 20 29.99 1016 10 16 0.00 0.03
11:04 am 11:04 Cloudy 58 14.4 55 12.8 90 90 NNW 15 24 30.00 1016 10 16 0.00 0.00
11:26 am 11:26 Cloudy 59 15 55 12.8 87 87 NNW 12 19 30.03 1017 10 16 0.00 0.00
11:54 am 11:54 Cloudy 60 15.6 54 12.2 80 80 NNW 18 30 30.01 1016 10 16 0.00 0.00
12:54 pm 12:54 Mostly Cloudy 63 17.2 54 12.2 73 73 NNW 23 37 30.02 1017 10 16 0.00 0.00
1:54 pm 13:54 Mostly Cloudy 65 18.3 51 10.6 61 61 NNW 22 35 30.03 1017 10 16 0.00 0.00
2:54 pm 14:54 Mostly Sunny 65 18.3 48 8.9 54 54 NNW 18 30 30.04 1017 10 16 0.00 0.00
3:54 pm 15:54 Cloudy 65 18.3 47 8.3 52 52 NNW 18 30 30.06 1018 10 16 0.00 0.00
4:54 pm 16:54 Mostly Cloudy 66 18.9 47 8.3 50 50 N 21 33 30.07 1018 10 16 0.00 0.00
5:54 pm 17:54 Mostly Cloudy 64 17.8 47 8.3 54 54 N 9 15 30.09 1019 10 16 0.00 0.00
6:54 pm 18:54 Sunny 62 16.7 46 7.8 56 56 N 9 15 30.11 1020 10 16 0.00 0.00
7:54 pm 19:54 Clear 60 15.6 46 7.8 60 60 NW 6 9 30.14 1021 10 16 0.00 0.00
8:54 pm 20:54 Clear 52 11.1 45 7.2 77 77 NW 5 7 30.17 1022 10 16 0.00 0.00
9:54 pm 21:54 Clear 52 11.1 45 7.2 77 77 NNW 3 6 30.19 1022 10 16 0.00 0.00
10:54 pm 22:54 Clear 47 8.3 43 6.1 86 86 N 3 6 30.20 1023 10 16 0.00 0.00
11:54 pm 23:54 Clear 47 8.3 44 6.7 90 90 Calm 30.21 1023 10 16 0.00 0.00

Powered by AerisWeather